GW3032 Weather Reports


time (UTC)temp
C
wind
direction
speed
KPH
gust
KPH
rain 1hr
cm
rain 24hr
cm
rain mn
cm
humidity
%
barometer
mb
20260903073417 24 324 1.6 1.6 0.00 0.00 0.00 89 1016.5
20260903072913 24 324 0.0 1.6 0.00 0.00 0.00 89 1016.6
20260903072409 24 324 0.0 0.0 0.00 0.00 0.00 89 1016.3
20260903071905 24 324 0.0 0.0 0.00 0.00 0.00 88 1016.1
20260903071401 24 324 0.0 0.0 0.00 0.00 0.00 88 1016.0
20260903070857 24 324 0.0 1.6 0.00 0.00 0.00 88 1016.0
20260903070351 25 324 0.0 0.0 0.00 0.00 0.00 88 1016.5
20260903065846 25 324 1.6 1.6 0.00 0.00 0.00 88 1016.5
20260903065345 25 324 0.0 0.0 0.00 0.00 0.00 87 1016.4
20260903064845 25 324 0.0 0.0 0.00 0.00 0.00 87 1016.6
20260903064340 26 324 0.0 0.0 0.00 0.00 0.00 87 1016.7
20260903063836 26 324 0.0 0.0 0.00 0.00 0.00 87 1016.8
20260903063331 26 325 4.8 4.8 0.00 0.00 0.00 86 1017.0
20260903062827 26 326 0.0 1.6 0.00 0.00 0.00 87 1016.9
20260903062326 26 286 0.0 1.6 0.00 0.00 0.00 86 1017.0
20260903061823 27 297 1.6 3.2 0.00 0.00 0.00 86 1016.8
20260903061316 27 310 4.8 4.8 0.00 0.00 0.00 85 1016.9
20260903060813 27 268 0.0 3.2 0.00 0.00 0.00 85 1017.1
20260903060311 27 352 6.4 12.9 0.00 0.00 0.00 84 1017.2
20260903055809 27 317 1.6 8.0 0.00 0.00 0.00 85 1017.1
20260903055308 27 241 1.6 3.2 0.00 0.00 0.00 85 1016.6
20260903054802 27 256 0.0 1.6 0.00 0.00 0.00 85 1016.4
20260903054257 27 254 0.0 1.6 0.00 0.00 0.00 85 1016.1
20260903053754 27 235 0.0 1.6 0.00 0.00 0.00 84 1016.3
20260903053254 27 259 1.6 4.8 0.00 0.00 0.00 84 1016.3
20260903052744 27 241 3.2 3.2 0.00 0.00 0.00 83 1016.1
20260903052239 27 242 0.0 4.8 0.00 0.00 0.00 84 1016.0
20260903051734 27 196 4.8 8.0 0.00 0.00 0.00 84 1016.1
20260903051230 27 264 1.6 3.2 0.00 0.00 0.00 83 1015.8
20260903050726 27 267 0.0 1.6 0.00 0.00 0.00 83 1015.8
20260903050224 27 191 3.2 4.8 0.00 0.00 0.00 83 1015.8
20260903045720 27 275 1.6 1.6 0.00 0.00 0.00 83 1015.5
20260903045216 27 246 3.2 9.7 0.00 0.00 0.00 83 1015.5
20260903044712 27 231 1.6 3.2 0.00 0.00 0.00 83 1015.5
20260903044207 27 244 3.2 4.8 0.00 0.00 0.00 83 1015.4
20260903043704 27 245 3.2 4.8 0.00 0.00 0.00 83 1015.4
20260903043203 27 248 1.6 3.2 0.00 0.00 0.00 82 1015.5
20260903042702 27 262 4.8 11.3 0.00 0.00 0.00 82 1015.3
20260903042157 27 222 1.6 8.0 0.00 0.00 0.00 83 1015.3
20260903041654 27 273 0.0 3.2 0.00 0.00 0.00 82 1015.4
20260903041149 27 229 3.2 4.8 0.00 0.00 0.00 82 1015.3
20260903040649 27 259 1.6 3.2 0.00 0.00 0.00 83 1015.0
20260903040144 27 271 1.6 8.0 0.00 0.00 0.00 82 1015.1
20260903035639 27 301 0.0 4.8 0.00 0.00 0.00 83 1015.0
20260903035130 27 247 1.6 1.6 0.00 0.00 0.00 83 1015.2
20260903034624 27 235 1.6 3.2 0.00 0.00 0.00 82 1014.9
20260903034119 27 239 1.6 1.6 0.00 0.00 0.00 82 1014.9
20260903033615 27 239 1.6 1.6 0.00 0.00 0.00 82 1014.7
20260903033109 27 234 1.6 3.2 0.00 0.00 0.00 83 1014.6
20260903032604 27 256 0.0 4.8 0.00 0.00 0.00 82 1014.8
20260903032059 27 249 0.0 1.6 0.00 0.00 0.00 82 1014.7
20260903031554 27 279 1.6 3.2 0.00 0.00 0.00 82 1014.8
20260903031049 27 240 1.6 3.2 0.00 0.00 0.00 81 1014.9
20260903030544 27 247 0.0 1.6 0.00 0.00 0.00 81 1015.2
20260903030041 27 222 1.6 1.6 0.00 0.00 0.00 81 1015.1
20260903025536 27 244 4.8 8.0 0.00 0.00 0.00 81 1015.4
20260903025032 27 254 1.6 1.6 0.00 0.00 0.00 81 1015.4
20260903024531 27 244 0.0 3.2 0.00 0.00 0.00 80 1015.4
20260903024026 27 257 0.0 3.2 0.00 0.00 0.00 80 1015.5
20260903023521 27 235 1.6 4.8 0.00 0.00 0.00 80 1015.6
20260903023017 27 258 0.0 3.2 0.00 0.00 0.00 81 1015.7
20260903022516 27 236 1.6 3.2 0.00 0.00 0.00 81 1015.7
20260903022014 27 279 0.0 0.0 0.00 0.00 0.00 82 1015.6
20260903021510 27 273 0.0 1.6 0.00 0.00 0.00 82 1015.7
20260903021004 27 259 0.0 0.0 0.00 0.00 0.00 82 1015.8
20260903020500 27 245 1.6 1.6 0.00 0.00 0.00 82 1015.8
20260903015954 27 259 0.0 0.0 0.00 0.00 0.00 82 1015.6
20260903015450 27 259 0.0 1.6 0.00 0.00 0.00 81 1015.7
20260903014944 27 259 1.6 1.6 0.00 0.00 0.00 81 1015.8
20260903014444 27 271 0.0 1.6 0.00 0.00 0.00 80 1015.9
20260903013938 27 271 0.0 0.0 0.00 0.00 0.00 80 1015.9
20260903013433 27 271 1.6 1.6 0.00 0.00 0.00 79 1015.9
20260903012932 27 245 1.6 1.6 0.00 0.00 0.00 80 1015.8
20260903012432 27 254 0.0 1.6 0.00 0.00 0.00 80 1016.0
20260903011930 27 249 0.0 1.6 0.00 0.00 0.00 79 1015.8
20260903011425 28 248 0.0 1.6 0.00 0.00 0.00 79 1015.9
20260903010920 28 248 1.6 1.6 0.00 0.00 0.00 78 1015.8
20260903010416 28 249 0.0 1.6 0.00 0.00 0.00 77 1015.8
20260903005913 28 254 1.6 1.6 0.00 0.00 0.00 77 1015.7
20260903005409 28 268 0.0 0.0 0.00 0.00 0.00 77 1015.8
20260903004906 28 268 0.0 0.0 0.00 0.00 0.00 76 1015.8
20260903004401 28 273 0.0 1.6 0.00 0.00 0.00 76 1015.6
20260903003856 28 253 0.0 3.2 0.00 0.00 0.00 76 1015.8
20260903003350 28 241 0.0 1.6 0.00 0.00 0.00 76 1015.5
20260903002850 29 242 0.0 1.6 0.00 0.00 0.00 76 1015.4
20260903002345 29 241 1.6 3.2 0.00 0.00 0.00 75 1015.4
20260903001840 29 240 0.0 1.6 0.00 0.00 0.00 75 1015.5
20260903001335 30 229 0.0 0.0 0.00 0.00 0.00 74 1015.4
20260903000835 30 266 1.6 1.6 0.00 0.00 0.00 74 1015.5
20260903000332 30 239 0.0 3.2 0.00 0.00 0.00 74 1015.4
20260902235827 30 228 0.0 1.6 0.00 0.00 0.00 73 1015.4
20260902235318 30 240 1.6 3.2 0.00 0.00 0.00 73 1015.4
20260902234817 30 226 0.0 3.2 0.00 0.00 0.00 74 1015.6
20260902234312 30 236 0.0 0.0 0.00 0.00 0.00 73 1015.5
20260902233811 30 260 0.0 0.0 0.00 0.00 0.00 73 1015.5
20260902233311 31 260 0.0 0.0 0.00 0.00 0.00 72 1015.3
20260902232809 31 260 0.0 0.0 0.00 0.00 0.00 71 1015.5
20260902232310 31 261 0.0 1.6 0.00 0.00 0.00 69 1015.4
20260902231809 31 261 0.0 1.6 0.00 0.00 0.00 68 1015.4
20260902231304 31 259 0.0 1.6 0.00 0.00 0.00 68 1015.4
20260902230759 31 247 0.0 1.6 0.00 0.00 0.00 67 1015.4
20260902230258 31 284 0.0 3.2 0.00 0.00 0.00 67 1015.3
20260902225753 32 228 0.0 4.8 0.00 0.00 0.00 66 1015.3
20260902225248 32 222 1.6 3.2 0.00 0.00 0.00 65 1015.2
20260902224746 32 228 3.2 3.2 0.00 0.00 0.00 64 1015.3
20260902224242 32 266 1.6 3.2 0.00 0.00 0.00 64 1015.4
20260902223738 32 302 1.6 1.6 0.00 0.00 0.00 63 1015.4
20260902223237 32 231 1.6 8.0 0.00 0.00 0.00 63 1015.4
20260902222736 33 230 3.2 4.8 0.00 0.00 0.00 63 1015.4
20260902222231 33 238 1.6 9.7 0.00 0.00 0.00 62 1015.3
20260902221725 33 304 4.8 8.0 0.00 0.00 0.00 61 1015.4
20260902221219 34 238 1.6 4.8 0.00 0.00 0.00 59 1015.4
20260902220714 34 229 0.0 3.2 0.00 0.00 0.00 59 1015.5
20260902220214 33 258 1.6 3.2 0.00 0.00 0.00 59 1015.4
20260902215710 34 257 3.2 4.8 0.00 0.00 0.00 59 1015.3
20260902215205 34 229 3.2 4.8 0.00 0.00 0.00 58 1015.5
20260902214700 34 225 3.2 12.9 0.00 0.00 0.00 58 1015.4
20260902214159 35 236 3.2 8.0 0.00 0.00 0.00 59 1015.4
20260902213655 35 252 3.2 4.8 0.00 0.00 0.00 60 1015.4
20260902213149 34 231 1.6 4.8 0.00 0.00 0.00 59 1015.5
20260902212644 34 238 3.2 8.0 0.00 0.00 0.00 59 1015.5
20260902212140 34 209 4.8 4.8 0.00 0.00 0.00 59 1015.7
20260902211636 33 238 3.2 4.8 0.00 0.00 0.00 59 1015.5
20260902211131 34 290 3.2 9.7 0.00 0.00 0.00 59 1015.9
20260902210631 34 200 1.6 11.3 0.00 0.00 0.00 57 1015.8
20260902210126 35 294 1.6 8.0 0.00 0.00 0.00 58 1015.8
20260902205619 34 250 1.6 9.7 0.00 0.00 0.00 58 1015.9
20260902205115 35 233 1.6 4.8 0.00 0.00 0.00 59 1015.9
20260902204615 35 210 3.2 8.0 0.00 0.00 0.00 57 1015.9
20260902204109 34 316 3.2 8.0 0.00 0.00 0.00 58 1016.1
20260902203605 34 250 0.0 4.8 0.00 0.00 0.00 60 1016.0
20260902203104 34 238 4.8 4.8 0.00 0.00 0.00 60 1016.0
20260902202600 35 156 4.8 8.0 0.00 0.00 0.00 59 1015.9
20260902202056 34 258 3.2 11.3 0.00 0.00 0.00 59 1016.1
20260902201551 35 227 3.2 9.7 0.00 0.00 0.00 58 1016.0
20260902201045 35 166 4.8 8.0 0.00 0.00 0.00 58 1016.3
20260902200540 35 266 1.6 3.2 0.00 0.00 0.00 57 1016.4
20260902200037 35 225 3.2 8.0 0.00 0.00 0.00 58 1016.0
20260902195532 35 324 3.2 9.7 0.00 0.00 0.00 58 1016.6
20260902195030 35 239 3.2 9.7 0.00 0.00 0.00 57 1016.4
20260902194525 34 239 1.6 9.7 0.00 0.00 0.00 58 1016.5
20260902194020 34 224 1.6 9.7 0.00 0.00 0.00 60 1016.6
20260902193515 34 237 3.2 8.0 0.00 0.00 0.00 61 1016.6
20260902193014 34 224 11.3 14.5 0.00 0.00 0.00 60 1016.5
20260902192508 34 168 4.8 8.0 0.00 0.00 0.00 59 1016.7
20260902192007 34 277 0.0 4.8 0.00 0.00 0.00 60 1016.7
20260902191503 34 225 0.0 9.7 0.00 0.00 0.00 60 1016.7
20260902190957 35 258 4.8 8.0 0.00 0.00 0.00 59 1016.9
20260902190452 34 208 0.0 3.2 0.00 0.00 0.00 61 1016.9
20260902185947 34 217 4.8 8.0 0.00 0.00 0.00 60 1017.0
20260902185443 34 306 4.8 9.7 0.00 0.00 0.00 61 1016.8
20260902184939 34 344 3.2 8.0 0.00 0.00 0.00 61 1016.9
20260902184434 35 249 3.2 8.0 0.00 0.00 0.00 62 1017.0
20260902183930 35 226 1.6 3.2 0.00 0.00 0.00 62 1017.1
20260902183425 34 298 1.6 11.3 0.00 0.00 0.00 62 1017.3
20260902182921 34 297 1.6 8.0 0.00 0.00 0.00 62 1017.2
20260902182417 34 263 1.6 3.2 0.00 0.00 0.00 60 1017.2
20260902181913 34 266 4.8 11.3 0.00 0.00 0.00 61 1017.3
20260902181409 33 304 4.8 4.8 0.00 0.00 0.00 62 1017.3
20260902180903 33 258 1.6 3.2 0.00 0.00 0.00 61 1017.4
20260902180358 33 155 3.2 4.8 0.00 0.00 0.00 62 1017.4
20260902175853 33 316 8.0 11.3 0.00 0.00 0.00 62 1017.6
20260902175348 33 336 1.6 3.2 0.00 0.00 0.00 63 1017.6
20260902174844 33 267 4.8 9.7 0.00 0.00 0.00 65 1017.5
20260902174341 33 330 3.2 8.0 0.00 0.00 0.00 64 1017.6
20260902173831 33 309 3.2 4.8 0.00 0.00 0.00 67 1017.6
20260902173330 32 230 3.2 8.0 0.00 0.00 0.00 64 1018.0
20260902172825 33 238 1.6 4.8 0.00 0.00 0.00 64 1017.9
20260902172324 33 275 1.6 4.8 0.00 0.00 0.00 64 1018.0
20260902171814 33 231 3.2 8.0 0.00 0.00 0.00 65 1018.0
20260902171309 33 232 4.8 4.8 0.00 0.00 0.00 65 1017.9
20260902170805 32 255 4.8 4.8 0.00 0.00 0.00 64 1018.2
20260902170301 32 233 3.2 3.2 0.00 0.00 0.00 68 1018.2
20260902165756 32 255 3.2 4.8 0.00 0.00 0.00 67 1018.2
20260902165256 32 234 1.6 3.2 0.00 0.00 0.00 70 1018.2
20260902164750 32 244 1.6 3.2 0.00 0.00 0.00 69 1018.1
20260902164244 32 254 3.2 4.8 0.00 0.00 0.00 67 1018.2
20260902163739 32 234 1.6 3.2 0.00 0.00 0.00 70 1018.4
20260902163233 32 232 3.2 4.8 0.00 0.00 0.00 69 1018.4
20260902162731 32 237 1.6 3.2 0.00 0.00 0.00 69 1018.2
20260902162221 32 234 3.2 4.8 0.00 0.00 0.00 68 1018.3
20260902161716 31 253 0.0 1.6 0.00 0.00 0.00 69 1018.3
20260902161211 31 234 1.6 3.2 0.00 0.00 0.00 70 1018.2
20260902160708 31 255 4.8 4.8 0.00 0.00 0.00 70 1018.3
20260902160203 31 237 3.2 3.2 0.00 0.00 0.00 72 1018.3
20260902155701 31 254 3.2 3.2 0.00 0.00 0.00 72 1018.5
20260902155159 32 238 3.2 3.2 0.00 0.00 0.00 70 1018.4
20260902154655 31 252 0.0 1.6 0.00 0.00 0.00 72 1018.3
20260902154154 31 255 3.2 4.8 0.00 0.00 0.00 72 1018.4
20260902153649 31 256 3.2 3.2 0.00 0.00 0.00 73 1018.4
20260902153144 31 235 1.6 3.2 0.00 0.00 0.00 74 1018.5
20260902152640 30 253 3.2 4.8 0.00 0.00 0.00 74 1018.5
20260902152135 30 254 3.2 3.2 0.00 0.00 0.00 75 1018.5
20260902151630 30 234 4.8 4.8 0.00 0.00 0.00 77 1018.5
20260902151125 30 235 1.6 4.8 0.00 0.00 0.00 77 1018.5
20260902150621 30 252 0.0 3.2 0.00 0.00 0.00 77 1018.6
20260902150115 30 252 1.6 3.2 0.00 0.00 0.00 78 1018.4
20260902145610 29 243 0.0 1.6 0.00 0.00 0.00 79 1018.5
20260902145109 28 238 1.6 3.2 0.00 0.00 0.00 80 1018.5
20260902144606 28 252 0.0 3.2 0.00 0.00 0.00 81 1018.5
20260902144101 28 255 4.8 4.8 0.00 0.00 0.00 81 1018.5
20260902143556 28 237 1.6 9.7 0.00 0.00 0.00 80 1018.6
20260902143051 28 246 3.2 3.2 0.00 0.00 0.00 82 1018.3
20260902142546 28 255 3.2 4.8 0.00 0.00 0.00 82 1018.3
20260902142042 28 242 1.6 3.2 0.00 0.00 0.00 84 1018.3
20260902141541 27 238 1.6 3.2 0.00 0.00 0.00 85 1018.3
20260902141038 27 234 4.8 8.0 0.00 0.00 0.00 86 1018.1
20260902140538 27 239 1.6 3.2 0.00 0.00 0.00 86 1018.2
20260902140033 27 248 0.0 3.2 0.00 0.00 0.00 87 1018.2
20260902135527 27 245 3.2 4.8 0.00 0.00 0.00 87 1018.1
20260902135022 27 246 1.6 3.2 0.00 0.00 0.00 88 1018.0
20260902134518 26 245 1.6 4.8 0.00 0.00 0.00 88 1018.2
20260902134018 26 248 1.6 4.8 0.00 0.00 0.00 89 1018.1
20260902133513 26 248 0.0 4.8 0.00 0.00 0.00 88 1018.1
20260902133012 26 246 1.6 1.6 0.00 0.00 0.00 88 1018.0
20260902132508 26 245 1.6 3.2 0.00 0.00 0.00 89 1017.9
20260902132003 26 246 0.0 1.6 0.00 0.00 0.00 89 1018.0
20260902131459 26 248 1.6 3.2 0.00 0.00 0.00 89 1018.1
20260902130958 26 245 4.8 8.0 0.00 0.00 0.00 90 1018.1
20260902130454 26 246 1.6 4.8 0.00 0.00 0.00 90 1018.0
20260902125949 26 247 1.6 3.2 0.00 0.00 0.00 90 1018.0
20260902125446 26 246 0.0 3.2 0.00 0.00 0.00 91 1018.3
20260902124941 25 246 0.0 1.6 0.00 0.00 0.00 92 1018.1
20260902124437 25 246 1.6 1.6 0.00 0.00 0.00 93 1018.2
20260902123932 25 246 0.0 1.6 0.00 0.00 0.00 93 1018.2
20260902123429 25 247 0.0 3.2 0.00 0.00 0.00 93 1018.3
20260902122926 25 246 3.2 3.2 0.00 0.00 0.00 94 1018.3
20260902122423 25 247 1.6 4.8 0.00 0.00 0.00 94 1018.0
20260902121918 25 246 0.0 3.2 0.00 0.00 0.00 94 1018.0
20260902121413 25 247 1.6 1.6 0.00 0.00 0.00 94 1018.1
20260902120908 25 247 0.0 1.6 0.00 0.00 0.00 94 1018.1
20260902120404 25 247 0.0 3.2 0.00 0.00 0.00 94 1018.1
20260902115903 25 246 0.0 1.6 0.00 0.00 0.00 95 1018.0
20260902115400 24 246 0.0 0.0 0.00 0.00 0.00 95 1017.8
20260902114856 24 246 0.0 0.0 0.00 0.00 0.00 96 1017.9
20260902114351 24 246 0.0 1.6 0.00 0.00 0.00 96 1017.7
20260902113846 24 246 0.0 0.0 0.00 0.00 0.00 97 1017.8
20260902113342 23 246 0.0 1.6 0.00 0.00 0.00 97 1017.7
20260902112841 23 246 0.0 1.6 0.00 0.00 0.00 98 1017.7
20260902112338 23 246 1.6 1.6 0.00 0.00 0.00 98 1017.5
20260902111833 23 247 0.0 1.6 0.00 0.00 0.00 99 1017.5
20260902111329 23 247 0.0 0.0 0.00 0.00 0.00 99 1017.6
20260902110824 23 247 0.0 1.6 0.00 0.00 0.00 99 1017.5
20260902110320 23 247 0.0 0.0 0.00 0.00 0.00 99 1017.3
20260902105820 23 247 0.0 1.6 0.00 0.00 0.00 99 1017.5
20260902105315 23 247 0.0 0.0 0.00 0.00 0.00 99 1017.3
20260902104810 23 247 1.6 1.6 0.00 0.00 0.00 99 1017.4
20260902104307 23 248 0.0 0.0 0.00 0.00 0.00 99 1017.5
20260902103806 23 248 0.0 1.6 0.00 0.00 0.00 99 1017.4
20260902103301 23 247 0.0 1.6 0.00 0.00 0.00 99 1017.3
20260902102756 23 242 1.6 3.2 0.00 0.00 0.00 99 1017.4
20260902102254 23 248 0.0 0.0 0.00 0.00 0.00 99 1017.5
20260902101749 23 248 0.0 1.6 0.00 0.00 0.00 99 1017.4
20260902101244 23 249 0.0 0.0 0.00 0.00 0.00 99 1017.1
20260902100743 23 249 0.0 0.0 0.00 0.00 0.00 99 1017.3
20260902100237 23 249 0.0 0.0 0.00 0.00 0.00 99 1017.3
20260902095732 22 245 0.0 1.6 0.00 0.00 0.00 99 1017.3
20260902095226 22 245 0.0 1.6 0.00 0.00 0.00 99 1017.1
20260902094721 22 245 0.0 0.0 0.00 0.00 0.00 99 1017.4
20260902094217 22 245 0.0 0.0 0.00 0.00 0.00 99 1017.5
20260902093715 22 245 0.0 0.0 0.00 0.00 0.00 99 1017.3
20260902093211 22 245 0.0 0.0 0.00 0.00 0.00 99 1017.3
20260902092706 22 245 0.0 0.0 0.00 0.00 0.00 99 1017.3
20260902092201 22 245 0.0 0.0 0.00 0.00 0.00 99 1017.4
20260902091655 22 245 0.0 0.0 0.00 0.00 0.00 99 1017.6
20260902091152 22 245 0.0 0.0 0.00 0.00 0.00 99 1017.8
20260902090647 22 245 0.0 0.0 0.00 0.00 0.00 99 1017.8
20260902090147 22 245 0.0 0.0 0.00 0.00 0.00 99 1017.6
20260902085641 22 245 0.0 0.0 0.00 0.00 0.00 99 1017.6
20260902085136 22 245 0.0 0.0 0.00 0.00 0.00 99 1017.7
20260902084633 22 245 0.0 0.0 0.00 0.00 0.00 99 1017.6
20260902084128 22 245 0.0 0.0 0.00 0.00 0.00 99 1017.6
20260902083623 22 245 0.0 0.0 0.00 0.00 0.00 99 1017.4
20260902083122 22 245 0.0 0.0 0.00 0.00 0.00 99 1017.6
20260902082618 22 245 0.0 0.0 0.00 0.00 0.00 99 1017.6
20260902082115 22 245 0.0 0.0 0.00 0.00 0.00 99 1017.6
20260902081611 22 245 0.0 0.0 0.00 0.00 0.00 99 1017.6
20260902081111 22 245 0.0 0.0 0.00 0.00 0.00 99 1017.5
20260902080606 22 245 0.0 0.0 0.00 0.00 0.00 99 1017.4
20260902075602 22 245 0.0 0.0 0.00 0.00 0.00 99 1017.2
20260902075058 22 245 0.0 0.0 0.00 0.00 0.00 99 1017.4
20260902074553 22 245 0.0 0.0 0.00 0.00 0.00 99 1017.4
20260902074048 22 245 0.0 0.0 0.00 0.00 0.00 99 1017.3